GFSSW_700_temp_000.txt.gz
Temp
11 11 11 11 10 11 11 11 12 13 13 13 14 14 14 14 15 15 16 16 16 16 16 16 16 16 15 15 15 15 15 15 16 15 14 15 16 14 15 16 14 13 13 14 12
11 11 11 11 11 10 11 11 12 12 13 13 13 14 14 14 15 16 16 16 16 16 16 16 17 16 16 16 15 15 14 15 16 16 16 15 15 15 15 16 15 15 14 14 14
11 11 11 11 11 11 11 11 11 12 12 13 13 14 14 15 16 16 16 16 16 17 17 17 17 17 17 17 17 16 16 16 16 16 16 15 14 14 15 16 14 15 16 15 14
10 11 11 11 11 11 11 11 11 12 12 12 13 14 14 15 15 15 16 16 16 16 17 17 17 17 18 17 17 17 17 16 16 16 15 15 15 14 14 15 14 15 15 15 15
10 11 11 11 11 11 11 11 11 11 12 12 12 13 14 15 15 14 16 16 16 17 17 17 17 17 18 17 17 17 17 16 16 16 16 16 14 15 14 15 14 14 15 15 15
10 10 10 11 11 11 11 11 11 11 11 12 12 13 14 14 15 14 15 16 16 17 17 17 17 17 18 18 17 17 17 16 17 16 17 17 16 15 14 14 14 14 14 15 15
10 10 10 10 11 11 11 11 11 11 11 11 12 13 14 14 14 14 15 16 16 17 17 17 17 17 17 18 18 18 17 16 17 17 16 17 14 14 14 14 14 14 14 14 14
10 10 10 10 11 11 11 11 11 11 11 11 12 13 14 14 14 15 15 16 16 17 17 17 16 17 17 17 18 17 17 15 15 16 17 16 13 13 13 13 13 14 14 14 14
10 10 10 10 11 11 11 11 11 11 11 11 11 12 14 14 15 15 15 16 16 17 17 17 16 17 17 16 17 17 17 17 16 17 18 17 14 14 13 13 13 13 14 14 13
10 10 10 10 10 11 11 11 11 11 10 11 11 12 13 12 13 14 15 16 16 16 16 16 17 16 17 16 17 18 18 17 18 17 17 17 16 16 15 13 14 14 13 13 12
10 10 10 10 10 11 10 10 10 10 10 11 11 13 13 12 12 12 14 15 15 15 16 16 17 17 17 17 19 18 19 18 18 17 17 17 17 17 16 14 13 14 14 13 13
10 10 10 10 10 10 10 10 9 9 12 11 12 12 13 12 12 12 13 14 14 15 15 16 17 18 18 18 18 18 17 19 18 18 17 17 17 16 16 16 15 15 14 14 13
9 10 10 10 10 10 10 10 9 9 9 14 13 13 13 12 12 12 13 14 14 14 15 16 17 18 18 18 18 18 17 19 19 18 17 16 15 15 15 15 14 14 14 15 15
9 9 10 10 10 10 9 10 9 9 9 14 15 15 13 13 13 13 13 14 13 14 15 15 16 17 18 18 18 17 18 19 19 18 17 17 14 15 15 15 14 14 14 15 15
8 9 9 10 10 10 10 9 9 8 7 14 14 14 14 13 14 14 14 13 14 14 14 15 16 17 17 17 18 18 19 19 20 18 18 16 16 17 14 14 15 15 16 16 16
8 8 9 9 10 10 9 9 9 9 8 14 14 15 14 13 14 14 14 14 14 15 15 15 16 17 17 18 18 19 18 19 18 18 15 17 17 16 16 16 16 16 16 15 15
8 8 9 10 9 9 9 9 8 9 12 14 14 14 14 14 14 14 14 14 14 14 15 15 16 16 17 17 18 18 18 18 16 14 13 18 16 18 18 18 17 18 17 16 16
8 8 9 9 8 9 9 8 8 11 13 14 14 13 13 14 14 14 14 14 14 14 15 15 15 17 17 17 18 19 19 18 14 13 16 19 18 20 20 19 18 17 17 17 17
8 8 9 8 9 8 8 8 9 12 12 12 12 12 14 14 14 14 14 14 15 15 15 15 16 17 17 17 18 18 19 19 19 17 16 19 20 20 19 19 18 17 16 16 17
8 8 8 9 9 8 8 9 10 11 10 11 11 11 12 13 13 15 15 15 15 15 15 15 15 17 18 18 18 19 19 19 18 13 14 17 18 19 19 19 18 17 17 17 16
7 8 7 8 8 8 7 9 10 10 10 10 10 11 11 12 12 13 15 16 15 15 16 16 15 17 17 18 18 19 19 19 19 19 12 12 17 19 19 19 18 17 17 17 16
6 6 7 7 7 7 8 9 10 10 10 10 10 11 11 12 13 13 15 16 16 16 16 16 16 16 17 18 18 19 19 19 19 17 18 18 18 19 19 18 18 18 17 17 16
5 6 5 6 6 6 7 7 8 9 9 10 10 11 11 12 12 14 15 16 16 17 16 17 16 16 17 18 18 19 19 19 19 19 18 15 17 18 18 18 17 17 17 17 16
4 5 5 4 5 5 5 6 7 8 8 9 10 11 11 12 13 14 15 16 17 17 18 17 17 17 15 17 18 19 19 19 19 19 19 18 18 17 17 17 17 17 17 16 16
1 2 4 4 4 4 5 5 6 7 9 9 10 10 10 12 13 13 14 15 16 17 17 17 17 17 17 18 18 19 19 19 19 19 19 19 18 18 18 17 17 17 16 16 16
0 2 3 3 4 4 5 5 6 7 8 10 9 10 11 11 12 13 14 14 15 16 16 17 17 18 17 18 18 18 19 19 19 19 19 19 19 18 18 17 17 17 17 16 16
-1 0 1 3 3 4 4 5 7 7 8 9 9 9 10 11 11 12 13 14 14 14 16 16 18 18 17 18 18 18 18 19 19 18 18 18 18 19 18 17 17 16 16 16 16

GFSSW_700_temp_003.txt.gz
Temp
10 11 11 11 10 10 10 11 11 12 12 13 13 13 14 14 14 14 15 16 15 15 15 15 16 15 15 14 14 15 15 16 15 14 14 13 13 13 13 15 13 12 12 13 12
10 10 11 11 11 11 10 10 11 11 12 12 13 13 14 14 14 15 15 15 16 16 16 16 16 16 16 15 15 15 15 15 15 15 14 14 14 15 15 15 15 14 13 13 13
10 10 11 11 11 11 11 10 10 11 11 12 12 13 13 14 15 16 16 16 16 16 16 16 16 16 16 16 15 16 16 16 16 15 15 15 15 15 15 15 15 15 15 14 13
10 10 10 11 11 11 11 11 11 11 11 11 12 13 13 14 14 15 16 16 16 17 16 16 16 16 16 16 16 16 17 16 16 16 15 15 15 15 15 15 15 15 15 15 14
10 10 10 10 11 11 11 11 11 11 11 11 11 12 13 14 14 14 16 16 16 17 16 16 16 16 16 16 17 17 17 16 16 15 15 15 15 15 14 14 15 15 15 15 15
11 11 10 10 11 11 11 11 11 11 11 11 11 12 13 14 14 14 15 16 16 17 16 16 17 16 16 17 17 17 17 16 16 15 15 15 14 13 14 14 14 14 15 15 15
11 11 11 11 11 11 11 11 12 11 11 11 11 12 13 14 14 14 14 15 16 17 17 17 16 16 17 17 16 17 16 15 15 15 15 15 15 14 14 14 14 14 14 15 15
10 11 11 11 11 11 11 11 11 11 11 11 12 12 13 13 14 14 14 15 16 16 16 16 16 16 16 16 17 16 15 15 15 16 16 16 16 14 14 14 14 14 14 14 15
10 11 11 11 11 11 11 10 11 11 12 12 12 12 13 13 14 13 14 15 16 16 16 16 16 16 16 16 15 16 15 14 15 16 16 16 16 14 13 13 13 13 14 14 14
10 10 11 11 11 11 11 10 11 11 12 12 12 12 12 12 12 12 13 15 16 15 15 15 16 16 16 16 16 15 14 16 17 16 16 16 17 16 15 12 12 12 13 14 14
10 10 10 10 11 11 11 10 11 10 11 12 11 12 12 11 12 12 12 13 15 15 15 15 15 16 17 17 16 16 15 17 18 17 17 16 17 17 16 15 13 13 13 13 13
9 9 10 10 11 11 11 10 10 10 12 12 12 12 13 12 12 12 12 12 14 15 15 15 16 17 17 17 17 17 16 16 16 17 16 16 17 16 16 16 16 16 15 15 13
9 9 10 10 10 10 10 10 9 9 9 15 14 14 14 12 12 12 11 11 13 14 14 15 16 16 16 17 17 16 17 18 17 16 15 16 15 15 15 15 15 15 15 14 15
9 9 9 10 10 10 10 10 9 8 9 14 13 13 14 12 12 12 11 12 12 13 14 14 16 16 17 17 17 17 18 18 17 16 15 16 14 16 15 15 15 15 15 15 15
9 9 9 10 10 9 10 9 9 8 6 13 13 13 14 13 13 12 12 12 12 12 13 14 15 17 17 17 17 18 18 18 17 16 16 14 15 17 16 15 16 16 16 16 16
8 8 9 9 10 9 9 9 8 8 7 13 12 12 13 13 12 13 12 12 13 13 14 14 15 16 17 17 17 18 17 17 17 16 14 17 15 17 17 18 19 17 16 16 16
8 7 8 9 9 9 9 9 8 8 11 13 12 12 12 13 13 13 13 13 12 13 14 14 14 15 16 17 17 17 16 16 14 12 11 17 14 17 19 19 19 19 18 17 16
8 7 8 8 8 9 8 7 7 10 12 13 12 13 13 13 13 13 13 13 13 13 14 14 14 15 16 16 16 17 17 16 12 10 14 16 14 17 19 19 18 18 18 17 17
7 7 8 8 8 8 8 7 8 10 11 10 11 12 13 13 13 13 13 13 14 14 14 14 14 15 16 16 16 17 17 17 17 15 14 17 18 18 19 19 18 18 18 17 17
7 7 7 7 8 8 8 7 9 10 9 10 10 11 11 12 12 12 12 14 14 14 14 14 15 15 16 16 16 17 17 17 16 12 13 15 17 19 19 20 19 18 18 18 18
6 7 7 7 8 7 7 8 9 9 8 9 9 10 10 11 11 11 11 13 13 14 14 14 14 15 16 16 17 17 17 17 17 17 10 11 16 19 19 19 19 19 19 18 18
4 5 6 6 6 6 7 8 8 8 8 8 8 9 9 10 10 11 12 13 14 14 14 14 15 15 15 16 17 17 18 18 17 15 17 17 18 19 19 19 19 19 19 18 17
3 5 4 5 5 6 6 7 7 7 7 8 8 9 9 9 9 11 12 14 14 14 14 15 14 15 15 16 16 16 17 17 18 19 18 15 18 19 19 19 19 18 18 18 17
1 3 3 4 4 5 5 6 6 6 6 7 7 7 8 9 10 11 12 13 14 16 15 15 15 15 15 16 16 17 17 18 18 18 18 18 19 18 19 18 18 18 18 17 17
-0 0 2 2 2 3 3 4 5 6 6 7 7 8 9 9 11 11 11 13 13 14 15 16 15 15 16 16 16 17 18 18 18 19 19 19 19 18 18 18 18 18 17 17 17
-2 -1 0 2 2 2 3 3 4 5 5 7 8 9 9 9 11 11 11 12 12 14 13 15 15 16 16 17 17 17 18 18 18 19 19 19 19 18 18 18 18 17 17 17 17
-2 -2 -1 -0 1 1 2 3 4 5 6 6 6 7 9 9 10 11 11 11 12 11 12 14 15 16 16 16 17 16 17 18 18 18 19 18 19 18 18 18 18 17 17 17 16

GFSSW_700_temp_006.txt.gz
Temp
10 10 10 10 10 10 10 11 11 11 11 11 12 13 13 13 13 14 15 15 15 15 15 15 15 15 15 15 14 14 14 15 15 15 15 13 13 13 13 13 13 12 12 13 13
10 10 10 10 10 10 10 10 11 11 11 11 11 12 13 13 14 14 14 14 15 15 15 15 15 15 15 15 15 15 15 16 15 15 15 14 13 14 14 14 14 13 13 12 13
10 10 10 10 10 10 11 11 11 11 11 11 11 11 12 13 14 14 15 15 15 16 16 16 15 15 15 15 15 15 16 16 15 15 15 14 14 13 14 15 14 15 15 14 13
10 10 10 10 11 11 11 11 11 11 11 11 11 11 12 13 14 14 15 15 16 16 16 16 16 15 16 16 15 15 16 16 16 15 15 15 14 14 14 13 15 15 14 14 14
10 10 11 11 11 11 11 11 11 11 11 11 11 11 12 13 14 13 15 15 16 16 16 16 16 16 16 16 16 16 16 17 16 16 15 14 15 15 14 14 15 15 14 14 14
10 10 11 11 11 11 11 11 11 11 11 11 11 11 12 13 13 13 14 15 16 16 16 16 16 16 16 16 16 16 17 17 16 16 15 15 14 14 14 14 14 15 15 14 14
10 10 10 11 11 11 11 11 11 11 12 12 11 12 12 13 13 13 14 14 15 16 16 16 16 16 16 16 16 16 16 16 16 15 15 14 14 13 13 14 14 15 14 14 14
10 10 11 11 11 11 11 11 11 12 12 12 12 12 13 13 13 14 13 14 15 15 16 15 15 15 16 16 16 16 16 16 15 15 15 14 14 14 13 13 13 14 14 14 14
10 10 10 10 11 11 11 11 11 12 12 12 12 12 13 13 13 13 13 13 14 15 15 14 15 15 16 16 16 15 16 15 14 14 15 14 14 15 14 14 13 14 14 14 14
10 10 10 10 10 11 11 11 11 12 12 12 12 12 13 12 13 13 13 12 13 14 14 14 15 15 15 16 15 15 16 15 15 15 14 15 15 16 16 15 14 14 14 14 14
9 9 10 10 11 11 11 10 11 11 12 12 12 12 13 12 12 12 12 12 12 13 14 14 15 15 15 16 17 17 16 16 15 14 15 15 16 16 16 15 15 14 14 14 14
9 9 9 10 10 10 11 11 11 10 12 12 13 13 13 13 11 12 11 11 11 12 13 14 15 16 15 16 16 16 16 16 15 14 13 14 15 15 16 16 16 15 15 14 13
9 9 10 9 10 10 10 10 10 10 9 14 13 13 13 13 12 12 11 11 11 12 13 14 15 15 15 16 16 16 16 15 15 14 14 14 14 15 15 16 16 15 15 14 14
8 9 9 9 9 9 9 10 10 8 9 13 13 13 13 13 13 12 11 11 11 11 12 13 14 15 15 15 16 16 16 16 16 16 15 14 14 15 15 16 16 16 15 15 14
8 8 9 9 9 8 9 9 8 8 6 12 12 12 12 12 12 12 11 11 11 11 12 13 15 14 15 15 16 16 16 16 16 16 16 14 14 17 16 15 17 17 16 15 15
8 8 9 9 9 8 9 9 8 7 7 12 12 11 12 12 12 12 12 11 11 11 11 13 14 15 15 15 16 16 16 16 16 15 12 16 14 16 16 18 19 18 17 16 16
7 7 8 9 8 7 8 8 7 7 10 12 11 12 11 11 12 12 12 11 11 11 11 12 13 14 15 15 15 16 16 15 13 11 10 17 13 16 17 18 18 18 18 17 16
7 7 7 8 7 7 7 7 6 8 11 12 12 12 12 12 12 12 12 12 11 11 12 12 13 14 14 15 15 16 16 15 12 9 13 15 13 17 19 18 18 18 18 17 17
6 7 7 7 7 7 7 6 7 8 10 10 10 11 12 12 12 12 12 12 12 12 12 13 13 14 15 15 15 16 16 16 16 14 13 15 17 18 18 19 19 18 18 18 17
6 7 7 7 7 7 7 7 7 8 9 9 9 10 11 11 11 11 12 12 12 13 13 13 13 14 14 15 15 15 16 16 15 10 11 13 15 18 19 19 19 18 19 18 18
4 5 6 6 6 6 6 6 7 8 8 8 8 9 9 10 10 10 10 12 13 13 13 13 13 14 14 15 15 15 15 15 15 15 9 10 15 18 19 19 19 19 19 19 18
3 3 4 5 5 5 6 7 7 8 8 7 7 8 8 9 9 9 10 12 13 13 12 12 13 13 14 14 15 15 15 16 15 14 15 16 17 18 19 19 19 19 19 19 19
2 2 3 3 3 4 5 5 6 6 6 7 7 7 8 8 9 10 11 13 13 12 12 13 12 12 13 14 14 15 15 16 16 16 16 14 17 18 18 19 19 19 19 19 18
-0 0 1 2 2 3 3 4 4 5 5 5 6 6 7 8 8 9 11 13 13 12 12 13 11 13 13 13 14 14 15 15 16 16 17 17 18 18 18 19 19 19 19 19 18
-1 -1 -0 0 -0 0 0 1 3 4 4 5 6 6 7 7 8 9 10 12 13 12 12 13 13 13 14 14 14 15 15 16 16 17 17 18 18 18 19 18 19 19 18 18 18
-3 -2 -1 -1 -0 -0 -0 0 1 2 3 4 5 6 7 7 8 9 10 11 13 12 12 11 12 13 14 14 14 15 15 16 17 17 17 17 18 18 19 18 18 18 18 18 18
-4 -4 -3 -1 -1 -1 -0 -0 1 1 3 4 5 6 7 8 8 9 9 11 11 12 10 10 12 13 14 14 15 13 15 15 16 17 17 17 18 18 19 18 18 18 18 18 18

GFSSW_700_temp_012.txt.gz
Temp
10 11 11 11 11 11 11 11 11 11 11 11 11 11 12 12 13 13 14 14 14 14 14 15 15 15 15 15 15 15 16 17 16 16 15 14 13 13 12 13 12 12 10 12 12
11 11 11 11 11 11 11 11 11 11 11 11 11 11 12 12 12 13 14 14 14 14 15 15 15 15 15 15 15 14 16 17 16 16 15 14 13 15 14 13 11 12 12 12 12
11 11 11 11 11 11 11 11 11 11 11 11 11 11 12 12 12 13 13 14 14 14 14 15 15 15 14 14 15 15 16 16 16 15 15 14 13 14 13 12 11 13 12 12 12
11 11 11 11 11 11 11 11 11 12 12 11 11 11 12 12 12 12 13 14 14 14 14 15 15 15 15 15 15 15 16 16 16 15 15 14 14 14 14 13 12 13 12 12 12
10 11 11 11 11 11 11 11 11 11 12 12 12 12 12 12 13 11 13 13 14 14 14 15 15 15 15 16 16 16 16 16 16 15 15 14 14 13 14 15 14 14 13 13 12
10 10 11 11 11 11 11 12 12 12 12 12 12 12 12 13 12 12 13 13 13 14 14 15 15 15 15 15 16 16 16 16 16 15 14 14 14 14 14 15 15 15 14 13 12
10 10 10 11 11 11 11 12 12 12 12 12 12 12 13 12 12 12 12 13 13 13 14 15 15 14 16 15 15 16 16 16 16 16 15 14 13 14 13 14 14 15 14 14 13
10 10 10 10 10 11 11 11 12 12 12 12 12 12 13 13 12 13 13 13 13 13 14 14 14 14 14 15 15 16 16 17 16 15 16 15 16 14 14 14 14 14 14 14 14
10 10 10 10 10 10 10 11 11 12 12 12 12 12 13 13 13 13 13 13 13 13 14 14 13 14 14 15 16 17 18 18 16 15 15 14 16 14 14 14 14 14 14 14 15
11 11 10 10 10 10 10 10 11 11 12 12 12 12 13 12 12 12 12 13 12 12 13 13 13 13 14 16 17 18 18 18 18 16 15 15 16 14 13 13 12 14 14 14 14
10 10 10 10 10 10 10 10 10 11 11 12 11 13 12 12 12 12 12 12 12 12 12 12 13 14 15 16 17 18 18 18 18 17 16 16 16 15 14 13 13 12 13 14 14
10 11 10 10 10 10 10 10 10 10 12 12 12 13 13 12 12 11 11 11 11 12 12 12 13 14 15 16 16 17 18 18 18 16 16 17 16 15 14 14 13 12 12 14 14
9 10 10 9 9 10 10 10 10 10 11 13 13 13 13 13 13 13 11 11 11 12 13 13 14 14 15 16 16 17 18 18 18 16 16 17 16 16 15 14 13 13 13 12 13
9 9 10 9 9 9 9 9 9 9 10 12 12 12 12 12 13 13 11 11 11 13 13 13 15 14 14 15 16 17 17 18 18 17 17 16 19 18 17 15 14 14 15 14 13
8 8 9 9 9 8 9 9 8 8 12 12 11 12 12 12 12 13 12 11 12 12 13 13 14 13 14 15 16 17 18 17 18 17 17 17 17 18 17 17 16 16 16 16 17
7 7 8 8 8 8 8 8 8 8 12 12 11 12 12 12 12 12 13 11 12 12 12 13 13 14 14 15 15 16 17 17 17 17 19 18 18 18 18 17 18 16 15 17 16
7 6 7 8 8 7 7 7 7 10 11 12 11 11 12 12 11 11 11 11 12 12 12 13 13 13 14 15 15 16 16 17 17 18 19 18 18 18 18 18 18 18 16 17 17
5 5 5 6 7 6 6 5 8 10 11 11 11 11 12 12 12 12 11 11 12 12 14 13 13 13 13 15 16 15 16 18 18 19 19 18 18 18 17 18 18 18 17 16 17
4 4 5 5 6 6 5 5 8 9 10 11 11 11 12 12 12 12 12 12 13 13 13 14 14 14 14 14 15 16 16 17 18 18 19 19 17 17 18 17 18 18 18 18 18
3 4 4 4 5 5 4 5 8 8 8 9 11 12 13 13 12 12 13 13 13 13 13 14 14 14 14 14 15 16 16 16 17 19 18 19 19 19 18 18 18 18 19 19 18
1 1 2 2 3 4 3 5 6 7 7 8 10 11 11 12 12 13 13 13 13 13 12 13 13 15 14 14 15 15 15 16 17 17 20 19 19 18 18 18 18 19 19 19 19
-2 -1 -1 1 1 1 3 4 5 5 6 7 8 9 10 11 11 11 12 12 12 12 12 13 13 13 14 15 15 15 15 16 17 17 18 18 19 19 18 18 18 18 19 18 19
-2 -2 -1 -1 -1 1 2 2 2 3 5 6 7 8 9 9 10 10 11 11 11 11 13 13 13 14 14 14 14 15 15 16 16 17 18 18 18 18 18 17 18 18 18 19 19
-4 -4 -3 -2 -2 -2 -0 -0 1 3 4 6 7 7 8 8 9 9 10 10 10 11 11 11 13 13 15 15 15 14 14 15 16 17 17 17 18 18 18 17 18 18 18 18 19
-6 -5 -4 -3 -2 -3 -3 -2 -1 1 2 4 5 6 7 8 8 9 9 10 10 10 10 11 12 13 13 14 15 15 15 14 15 16 16 17 17 17 17 17 17 18 18 18 19
-7 -7 -7 -4 -4 -3 -3 -2 -1 0 1 2 4 6 6 7 8 8 9 9 9 10 10 10 11 12 13 14 14 15 15 15 15 15 15 16 16 17 17 17 17 17 18 18 18
-8 -7 -7 -6 -4 -5 -3 -3 -3 -3 -1 0 1 2 3 5 6 7 7 8 9 9 10 10 11 12 12 14 14 14 14 15 15 15 15 15 16 16 17 17 17 17 17 18 18